PGT689 LTFJ-LTFM

Flight info

Callsign PGT689
Flight time 0h 20m
Altitude 5000
Route BKZ1Y BKZ
Aircraft A20N/M-SDE3FGRWY/S

Departure

Time 2026-05-01 09:06
Airport Istanbul Sabiha Gökçen International Airport (LTFJ)

Arrival

Time 2026-05-01 09:27
Airport İstanbul Airport (LTFM)
Time Latitude Longitude Altitude Speed Heading
2026-05-01 09:01 40.90637 29.32230 321 ft 0 kts 154°
2026-05-01 09:01 40.90643 29.32226 321 ft 3 kts 154°
2026-05-01 09:02 40.90654 29.32219 321 ft 2 kts 154°
2026-05-01 09:02 40.90670 29.32209 321 ft 3 kts 154°
2026-05-01 09:02 40.90686 29.32199 321 ft 3 kts 154°
2026-05-01 09:02 40.90700 29.32187 319 ft 2 kts 144°
2026-05-01 09:03 40.90714 29.32177 320 ft 2 kts 124°
2026-05-01 09:03 40.90719 29.32162 318 ft 0 kts 72°
2026-05-01 09:04 40.90717 29.32155 319 ft 1 kts 72°
2026-05-01 09:04 40.90724 29.32185 319 ft 7 kts 70°
2026-05-01 09:04 40.90726 29.32194 319 ft 0 kts 70°
2026-05-01 09:04 40.90728 29.32202 319 ft 3 kts 70°
2026-05-01 09:05 40.90732 29.32249 321 ft 7 kts 96°
2026-05-01 09:05 40.90705 29.32285 321 ft 8 kts 156°
2026-05-01 09:05 40.90630 29.32331 321 ft 16 kts 152°
2026-05-01 09:05 40.90573 29.32417 321 ft 13 kts 133°
2026-05-01 09:06 40.90481 29.32485 320 ft 19 kts 169°
2026-05-01 09:06 40.90381 29.32351 319 ft 41 kts 244°
2026-05-01 09:06 40.90114 29.31615 323 ft 138 kts 242°
2026-05-01 09:06 40.89679 29.30353 1142 ft 161 kts 248°
2026-05-01 09:07 40.89138 29.28862 1986 ft 196 kts 248°
2026-05-01 09:07 40.88637 29.27060 2888 ft 222 kts 256°
2026-05-01 09:07 40.88156 29.25063 4071 ft 228 kts 257°
2026-05-01 09:07 40.87707 29.22928 4677 ft 270 kts 261°
2026-05-01 09:08 40.87430 29.20268 5151 ft 306 kts 278°
2026-05-01 09:08 40.88147 29.17676 6427 ft 310 kts 303°
2026-05-01 09:08 40.89396 29.15439 8162 ft 285 kts 315°
2026-05-01 09:08 40.90801 29.13600 9975 ft 284 kts 320°
2026-05-01 09:09 40.92340 29.12122 11895 ft 260 kts 323°
2026-05-01 09:09 40.93824 29.10787 13576 ft 252 kts 324°
2026-05-01 09:09 40.95341 29.09551 14766 ft 251 kts 325°
2026-05-01 09:09 40.96919 29.08338 15449 ft 278 kts 326°
2026-05-01 09:10 40.98611 29.07112 15156 ft 278 kts 329°
2026-05-01 09:10 41.00377 29.05926 14580 ft 286 kts 330°
2026-05-01 09:10 41.02191 29.04805 13864 ft 295 kts 332°
2026-05-01 09:10 41.04101 29.03646 12952 ft 308 kts 332°
2026-05-01 09:11 41.06096 29.02388 11879 ft 324 kts 330°
2026-05-01 09:11 41.07932 29.00684 11308 ft 320 kts 317°
2026-05-01 09:11 41.09545 28.98742 10894 ft 312 kts 312°
2026-05-01 09:11 41.10804 28.96434 10444 ft 306 kts 295°
2026-05-01 09:12 41.11412 28.93866 10564 ft 282 kts 281°
2026-05-01 09:12 41.11667 28.91297 10005 ft 284 kts 277°
2026-05-01 09:12 41.11946 28.88628 9175 ft 294 kts 281°
2026-05-01 09:12 41.12269 28.85957 8667 ft 293 kts 279°
2026-05-01 09:13 41.12522 28.83325 8450 ft 281 kts 278°
2026-05-01 09:13 41.12718 28.80771 7863 ft 282 kts 282°
2026-05-01 09:13 41.12966 28.78118 6823 ft 302 kts 282°
2026-05-01 09:13 41.13289 28.75248 5492 ft 323 kts 283°
2026-05-01 09:14 41.13754 28.72307 5089 ft 314 kts 293°
2026-05-01 09:14 41.14753 28.70126 5621 ft 235 kts 324°
2026-05-01 09:14 41.15858 28.69638 6694 ft 118 kts 25°
2026-05-01 09:14 41.16299 28.70283 7574 ft 100 kts 41°
2026-05-01 09:15 41.17305 28.70673 6698 ft 203 kts 13°
2026-05-01 09:15 41.18662 28.71280 5774 ft 205 kts 24°
2026-05-01 09:15 41.20029 28.71798 4579 ft 212 kts
2026-05-01 09:15 41.21432 28.71579 3660 ft 200 kts 346°
2026-05-01 09:16 41.22092 28.71277 3035 ft 204 kts 346°
2026-05-01 09:16 41.23368 28.70847 2551 ft 173 kts 358°
2026-05-01 09:16 41.24476 28.70900 2356 ft 140 kts 17°
2026-05-01 09:17 41.26677 28.71129 2772 ft 152 kts
2026-05-01 09:17 41.27651 28.70864 2814 ft 143 kts 329°
2026-05-01 09:17 41.27947 28.67326 3471 ft 240 kts 256°
2026-05-01 09:18 41.27568 28.66340 3643 ft 256 kts 242°
2026-05-01 09:19 41.27231 28.65667 3682 ft 265 kts 239°
2026-05-01 09:19 41.26170 28.63771 3889 ft 237 kts 221°
2026-05-01 09:19 41.24811 28.62727 3804 ft 226 kts 201°
2026-05-01 09:20 41.21989 28.61790 3714 ft 191 kts 189°
2026-05-01 09:20 41.19488 28.61253 3265 ft 179 kts 184°
2026-05-01 09:21 41.17964 28.61113 3014 ft 159 kts 168°
2026-05-01 09:21 41.17547 28.61172 3026 ft 186 kts 167°
2026-05-01 09:21 41.15407 28.63002 3515 ft 139 kts 94°
2026-05-01 09:22 41.15470 28.66093 3096 ft 203 kts 82°
2026-05-01 09:22 41.15860 28.69012 3228 ft 152 kts 50°
2026-05-01 09:23 41.16715 28.70081 3057 ft 166 kts 33°
2026-05-01 09:23 41.17348 28.70510 3000 ft 145 kts 24°
2026-05-01 09:24 41.18716 28.70875 2518 ft 135 kts 15°
2026-05-01 09:24 41.19602 28.71089 2251 ft 127 kts
2026-05-01 09:24 41.20827 28.70945 1849 ft 124 kts
2026-05-01 09:25 41.20837 28.70944 1846 ft 124 kts
2026-05-01 09:25 41.22614 28.70801 1301 ft 125 kts
2026-05-01 09:26 41.23419 28.70780 1138 ft 110 kts
2026-05-01 09:26 41.25226 28.70737 602 ft 125 kts
2026-05-01 09:26 41.26058 28.70725 370 ft 116 kts
2026-05-01 09:27 41.27323 28.70726 179 ft 40 kts 356°
2026-05-01 09:27 41.27555 28.70720 180 ft 28 kts 359°
2026-05-01 09:27 41.27736 28.70718 183 ft 24 kts
2026-05-01 09:28 41.27886 28.70714 188 ft 19 kts 358°
2026-05-01 09:28 41.28008 28.70712 183 ft 16 kts 358°
2026-05-01 09:28 41.28113 28.70711 195 ft 14 kts
2026-05-01 09:28 41.28199 28.70712 188 ft 10 kts
2026-05-01 09:29 41.28317 28.70780 181 ft 9 kts 27°
2026-05-01 09:29 41.28371 28.70817 181 ft 8 kts 27°
2026-05-01 09:30 41.28398 28.70836 180 ft 0 kts 31°
2026-05-01 09:31 41.28401 28.70838 180 ft 3 kts 32°
2026-05-01 09:31 41.28447 28.70920 163 ft 8 kts 58°
2026-05-01 09:32 41.28488 28.70982 180 ft 9 kts 53°
2026-05-01 09:32 41.28502 28.71067 181 ft 0 kts 89°
2026-05-01 09:33 41.28501 28.71079 181 ft 3 kts 92°
2026-05-01 09:33 41.28495 28.71124 181 ft 7 kts 109°
2026-05-01 09:33 41.28443 28.71174 181 ft 9 kts 158°
2026-05-01 09:34 41.28363 28.71180 181 ft 14 kts 179°
2026-05-01 09:34 41.28244 28.71183 181 ft 20 kts 178°
2026-05-01 09:34 41.27891 28.71191 181 ft 26 kts 179°
2026-05-01 09:35 41.27695 28.71193 181 ft 31 kts 179°
2026-05-01 09:35 41.27204 28.71205 181 ft 39 kts 178°
2026-05-01 09:35 41.26932 28.71210 181 ft 34 kts 180°
2026-05-01 09:36 41.26783 28.71254 181 ft 17 kts 115°
2026-05-01 09:36 41.26778 28.71401 181 ft 17 kts 88°
2026-05-01 09:36 41.26781 28.71569 181 ft 20 kts 89°
2026-05-01 09:36 41.26781 28.71600 180 ft 3 kts 88°
2026-05-01 09:37 41.26781 28.71650 180 ft 8 kts 91°
2026-05-01 09:37 41.26781 28.71829 180 ft 15 kts 89°
2026-05-01 09:37 41.26784 28.71983 180 ft 18 kts 88°
2026-05-01 09:38 41.26737 28.72167 180 ft 4 kts 178°
2026-05-01 09:38 41.26736 28.72167 180 ft 0 kts 178°
2026-05-01 09:39 41.26730 28.72170 180 ft 3 kts 156°
2026-05-01 09:40 41.26706 28.72206 180 ft 4 kts 128°
2026-05-01 09:40 41.26700 28.72227 180 ft 0 kts 98°
2026-05-01 09:40 41.26701 28.72240 180 ft 5 kts 88°
2026-05-01 09:41 41.26701 28.72283 180 ft 0 kts 91°
2026-05-01 09:41 41.26701 28.72342 180 ft 10 kts 89°
2026-05-01 09:41 41.26702 28.72463 181 ft 16 kts 89°
2026-05-01 09:42 41.26703 28.72592 182 ft 14 kts 89°
2026-05-01 09:42 41.26705 28.72752 182 ft 20 kts 89°
2026-05-01 09:42 41.26708 28.72896 180 ft 0 kts 88°
2026-05-01 09:45 41.26708 28.72901 180 ft 0 kts 88°
2026-05-01 09:46 41.26708 28.72905 180 ft 1 kts 88°
2026-05-01 09:47 41.26709 28.72929 179 ft 4 kts 81°
2026-05-01 09:47 41.26722 28.72968 179 ft 5 kts 53°
2026-05-01 09:47 41.26752 28.72987 180 ft 5 kts
2026-05-01 09:47 41.26797 28.72990 180 ft 10 kts 360°
2026-05-01 09:48 41.26879 28.72989 180 ft 5 kts 358°
2026-05-01 09:48 41.26924 28.72997 180 ft 6 kts 37°
2026-05-01 09:48 41.26944 28.73068 180 ft 0 kts 96°
2026-05-01 09:49 41.26943 28.73070 180 ft 0 kts 104°
2026-05-01 09:50 41.26932 28.73088 180 ft 6 kts 142°
2026-05-01 09:50 41.26928 28.73114 180 ft 3 kts 63°
2026-05-01 09:50 41.26942 28.73170 180 ft 9 kts 78°
2026-05-01 09:50 41.26944 28.73274 180 ft 14 kts 88°
2026-05-01 09:51 41.26947 28.73425 180 ft 19 kts 89°
2026-05-01 09:51 41.26949 28.73591 180 ft 18 kts 88°
2026-05-01 09:51 41.26951 28.73782 180 ft 23 kts 89°
2026-05-01 09:51 41.26954 28.73993 181 ft 24 kts 89°
2026-05-01 09:52 41.26956 28.74233 181 ft 28 kts 89°
2026-05-01 09:52 41.26960 28.74504 182 ft 30 kts 88°
2026-05-01 09:52 41.26962 28.74730 182 ft 19 kts 89°
2026-05-01 09:52 41.26964 28.74904 182 ft 21 kts 88°
2026-05-01 09:53 41.26967 28.75073 183 ft 14 kts 83°
2026-05-01 09:53 41.27003 28.75138 183 ft 6 kts
2026-05-01 09:53 41.27059 28.75144 183 ft 10 kts
2026-05-01 09:53 41.27132 28.75113 183 ft 13 kts 316°
2026-05-01 09:54 41.27138 28.75030 183 ft 10 kts 268°
2026-05-01 09:54 41.27137 28.74902 182 ft 18 kts 271°
2026-05-01 09:54 41.27136 28.74706 182 ft 22 kts 269°
2026-05-01 09:54 41.27135 28.74654 182 ft 5 kts 266°
2026-05-01 09:55 41.27135 28.74650 182 ft 0 kts 266°
2026-05-01 09:55 41.27134 28.74648 182 ft 2 kts 255°
2026-05-01 09:55 41.27117 28.74613 182 ft 6 kts 227°
2026-05-01 09:55 41.27065 28.74604 182 ft 11 kts 179°
2026-05-01 09:56 41.26965 28.74605 182 ft 18 kts 180°
2026-05-01 09:56 41.26812 28.74606 182 ft 25 kts 177°
2026-05-01 09:56 41.26622 28.74613 182 ft 27 kts 179°
2026-05-01 09:56 41.26492 28.74596 182 ft 14 kts 199°
2026-05-01 09:57 41.26406 28.74525 182 ft 9 kts 210°
2026-05-01 09:57 41.26354 28.74517 182 ft 3 kts 179°
2026-05-01 09:57 41.26338 28.74517 182 ft 0 kts 180°